Hazard, Kentucky, United States (41701)
Lat: 37.25N, Lon: 83.19W
Wx Zone: KYZ115
Local Info
Past Weather Observations for Saturday, September 24, 2016

NOTE: This archive is for the closest National Weather Service station to Hazard. Information may differ from the station used for current weather conditions.

Click here for Long-term Archive

Time Weather Temperature Dewpoint Humidity Pressure Winds Precip Visibility
23:53
Clear
72°F / 22°C 64°F / 18°C 78% 30.12 in
(1020 mb)
Calm - 10SM
22:53
Clear
73°F / 23°C 64°F / 18°C 74% 30.12 in
(1020 mb)
Calm - 10SM
21:53
Clear
73°F / 23°C 64°F / 18°C 74% 30.12 in
(1020 mb)
Calm - 10SM
20:53
Clear
75°F / 24°C 64°F / 18°C 69% 30.12 in
(1020 mb)
Calm - 10SM
19:53
Clear
77°F / 25°C 63°F / 17°C 61% 30.12 in
(1020 mb)
Calm - 10SM
18:53
Clear
79°F / 26°C 63°F / 17°C 58% 30.12 in
(1020 mb)
Calm - 10SM
17:53
Clear
82°F / 28°C 63°F / 17°C 51% 30.12 in
(1020 mb)
Variable 3.5 mph
(Variable 6 kph)
- 10SM
16:53
Clear
86°F / 30°C 63°F / 17°C 46% 30.09 in
(1019 mb)
Variable 3.5 mph
(Variable 6 kph)
- 10SM
15:53
Clear
86°F / 30°C 63°F / 17°C 46% 30.12 in
(1020 mb)
Variable 3.5 mph
(Variable 6 kph)
- 10SM
14:53
Mostly Cloudy
84°F / 29°C 61°F / 16°C 45% 30.12 in
(1020 mb)
NW 5.8 mph
(NW 9 kph)
- 10SM
13:53
Clear
88°F / 31°C 63°F / 17°C 43% 30.12 in
(1020 mb)
Variable 3.5 mph
(Variable 6 kph)
- 10SM
12:53
Partly Cloudy
82°F / 28°C 64°F / 18°C 55% 30.15 in
(1021 mb)
Calm - 10SM
11:53
Clear
84°F / 29°C 66°F / 19°C 55% 30.15 in
(1021 mb)
Calm - 10SM
10:53
Clear
82°F / 28°C 66°F / 19°C 58% 30.18 in
(1022 mb)
Calm - 10SM
09:53
Clear
77°F / 25°C 66°F / 19°C 69% 30.18 in
(1022 mb)
Calm - 10SM
08:53
Clear
72°F / 22°C 64°F / 18°C 78% 30.18 in
(1022 mb)
Calm - 10SM
07:53
Clear
68°F / 20°C 64°F / 18°C 88% 30.15 in
(1021 mb)
Calm - 10SM
06:53
Clear
66°F / 19°C 63°F / 17°C 88% 30.15 in
(1021 mb)
Calm - 10SM
05:53
Clear
66°F / 19°C 63°F / 17°C 88% 30.12 in
(1020 mb)
Calm - 10SM
04:53
Clear
68°F / 20°C 64°F / 18°C 88% 30.12 in
(1020 mb)
Calm - 10SM
03:53
Clear
68°F / 20°C 64°F / 18°C 88% 30.12 in
(1020 mb)
Calm - 10SM
02:53
Clear
68°F / 20°C 64°F / 18°C 88% 30.12 in
(1020 mb)
Calm - 10SM
01:53
Clear
70°F / 21°C 63°F / 17°C 78% 30.12 in
(1020 mb)
Calm - 10SM
00:53
Clear
72°F / 22°C 63°F / 17°C 73% 30.12 in
(1020 mb)
Calm - 10SM
Time Weather Temperature Dewpoint Humidity Pressure Winds Precip Visibility


Weather for websites

WeatherForYou.com, LLC is not responsible for any damages or problems caused by this service. Current weather conditions are obtained from the closest station including government and personal stations which may have varying degrees of accuracy. Weather forecasts are derived from the NOAA NDFD. Like all things, this site belongs to Jesus Christ... He just trusts us to maintain it. If you have any questions or comments email webmaster@weatherforyou.com

Copyright © 2016, WeatherForYou.com LLC. All rights reserved.